map of KGXF home
KGXF - Airport
Location
City:  Gila Bend, Arizona, United States
Name:Gila Bend AF Auxiliary Airport
ICAO:KGXF
FAA LID:GXF

Details
Type:Airport (Airfield)
Use:Military
Latitude:3253'16"N (32.887847)
Longitude:11243'11"W (-112.719609)
Datum:WGS 1984
Elevation:883 ft (269 m)
Variation:10.53E (WMM2015 magnetic declination)
-0.09 annual change
Runways:1
Longest:8500 × 150 ft (2591 × 45.5 m), paved

Time
Time Zone:UTC-7
Local Time:

Weather
METAR:KGXF 040058Z 24004KT 10SM CLR 16/M05 A2994 RMK SLPNO DATA ESTMD

Related Locations
Nearby:
Farthest:RRG: 11495 mi / 18500 km
Plaine Corail, Rodrigues Island, MU

Find:

   beyond  
but within

Other Information
Maps:
NOTAMs:
Links:
Sources:

  
flag of United States
flag of Arizona
  

Sectional Chart

Flight Planning
at skyvector.com

Satellite Image

Google Maps Satellite view

 

Copyright © 2004-2016 Karl L. Swartz. All rights reserved.
The Great Circle Mapper name and logo are trademarks of the Great Circle Mapper.
All other trademarks mentioned herein belong to their respective owners.
Please see credits for attibutions and further copyright information.

  Follow gcmap on Facebook Follow gcmap on Twitter Follow gcmap on Google+ GCmap on LinkedIn

hCard Microformat

Geo Microformat